Location: Bethel Church
(38.0159°N, 88.7292°W)
Time: 03:32:52
(UTC+00:00)

CZ-4B DEB - Pass Details

Date: 08 December 2021
Orbit: 840 x 861 km, 99.1° (Epoch: 21 January)

Event Time Altitude Azimuth Distance (km) Brightness Sun altitude
Rises 23:04:56 0° 148° (SSE) 3,411 7.3 -6.1°
Reaches altitude 10° 23:07:23 10° 142° (SE) 2,476 6.5 -6.5°
Maximum altitude 23:12:36 47° 71° (ENE) 1,119 4.5 -7.5°
Drops below altitude 10° 23:17:50 10° 359° (N) 2,477 6.4 -8.4°
Sets 23:20:16 0° 353° (N) 3,413 7.2 -8.9°
